Regional Weather Roundup
Issued by NWS

Home | Current Version | Previous Version | Graphics & Text | Print | Product List | Glossary On
Versions: 1 2 3 4 5 6 7 8 9 10 11 12 13 14 15 16 17 18 19 20 21 22 23 24 25 26 27 28 29 30 31 32 33 34 35 36 37 38 39 40 41 42 43 44 45 46 47 48 49 50
000
ASUS43 KIND 251809
RWRIN

WEATHER ROUNDUP FOR INDIANA
NATIONAL WEATHER SERVICE INDIANAPOLIS IN
200 PM EDT SUN SEP 25 2016

NOTE: "FAIR" INDICATES FEW OR NO CLOUDS BELOW 12,000 FEET WITH NO
SIGNIFICANT WEATHER AND/OR OBSTRUCTIONS TO VISIBILITY.

* - STATION DOES NOT REPORT WEATHER SUCH AS PRECIPITATION OR FOG.

+ - STATION NOT QUALITY CONTROLLED BY THE NATIONAL WEATHER SERVICE.
    USE DATA WITH CAUTION...ESPECIALLY DEWPOINT AND RELATIVE
    HUMIDITY OBSERVATIONS.

INZ001>003-010>013-019-020-251900-
NORTHWEST INDIANA

CITY           SKY/WX    TMP DP  RH WIND       PRES   REMARKS
GARY /AIRPORT/ PTSUNNY   82  64  54 S8        30.04F
KNOX *+        MOSUNNY   81  36  19 SE8       30.08F
LA PORTE +     SUNNY     83  64  52 S6        30.08F
6HR MIN TEMP:  59; 6HR MAX TEMP:  83;

MICHIGAN CITY+ SUNNY     79  63  57 CALM      30.06F
MONTICELLO +   SUNNY     83  61  48 S7        30.07S
6HR MIN TEMP:  59; 6HR MAX TEMP:  83;

RENSSELAER +   MOSUNNY   86  63  45 S7        30.05F
VALPARAISO     SUNNY     82  64  54 SE12      30.06F
6HR MIN TEMP:  58; 6HR MAX TEMP:  82;


$$

LMZ046-743>745-251900-
SOUTHERN LAKE MICHIGAN

STATION/POSITION TIME  TEMP    WIND        PRES    WAVE
                       AIR SEA DIR/SP/G            HT
                 (UTC) (F)     (DEG/KT/KT) (MB)    (FT)
BURNS HARBOR     1700   77     190/ 10/ 15 1018.3F
MICHIGAN CITY    1700   76     130/  9/ 10   N/A
5NW MICH CITY    1800   73 69  140/  8/ 10   N/A     1

$$

INZ004-005-014>016-021>024-251900-
NORTH CENTRAL INDIANA

CITY           SKY/WX    TMP DP  RH WIND       PRES   REMARKS
ELKHART        SUNNY    N/A N/A N/A E8        30.09F
GOSHEN         SUNNY     79  59  50 SE7       30.09F
6HR MIN TEMP:  58; 6HR MAX TEMP:  79;

LOGANSPORT +   MOSUNNY   82  63  51 S3        30.09S
PERU/GRISSOM   SUNNY     83  67  57 SE5       30.07F
6HR MIN TEMP:  58; 6HR MAX TEMP:  83;

ROCHESTER +    SUNNY     82  66  57 SE5       30.09F
SOUTH BEND     MOSUNNY   77  62  59 SE12      30.09F
6HR MIN TEMP:  59; 6HR MAX TEMP:  77;

WARSAW +       SUNNY     79  55  44 SE6       30.09F

$$

INZ006>009-017-018-025>027-251900-
NORTHEAST INDIANA

CITY           SKY/WX    TMP DP  RH WIND       PRES   REMARKS
ANGOLA *+        N/A     75  68  78 SE8       30.13F
AUBURN +       MOSUNNY   73  55  53 E3        30.13F
FORT WAYNE     PTSUNNY   77  61  57 CALM      30.11F
6HR MIN TEMP:  55; 6HR MAX TEMP:  78;

HUNTINGTON +   SUNNY    N/A N/A N/A CALM      30.10F
KENDALLVILLE + MOSUNNY   76  57  51 SE8       30.12F

$$

INZ028-029-035-036-043>045-051>053-251900-
WEST CENTRAL INDIANA

CITY           SKY/WX    TMP DP  RH WIND       PRES   REMARKS
CRAWFORDSVL +  MOSUNNY   82  65  57 W5        30.08F
6HR MIN TEMP:  60; 6HR MAX TEMP:  83;

GREENCASTLE +  SUNNY     82  72  69 S3        30.09F
LAFAYETTE      CLOUDY    84  66  54 W3        30.05F
6HR MIN TEMP:  60; 6HR MAX TEMP:  85;

TERRE HAUTE    SUNNY     86  68  54 VRB3      30.07F
6HR MIN TEMP:  65; 6HR MAX TEMP:  87;


$$

INZ030>032-037>040-046>048-054>057-064-065-251900-
CENTRAL INDIANA

CITY           SKY/WX    TMP DP  RH WIND       PRES   REMARKS
COLUMBUS       SUNNY     82  68  61 W3        30.10F
FISHERS *+     SUNNY     84  70  61 SW5       30.09F
GREENWOOD *+   SUNNY    N/A N/A N/A SE3       30.10F
INDIANAPOLIS   MOSUNNY   83  68  60 S7        30.08F
6HR MIN TEMP:  64; 6HR MAX TEMP:  83;

-EAGLE CREEK   SUNNY     83  67  58 SE6       30.08F
6HR MIN TEMP:  63; 6HR MAX TEMP:  83;

MARION +       MOSUNNY   82  63  52 S5        30.10F
MT COMFORT *+  SUNNY     84  66  54 CALM      30.10F
SHELBYVILLE    MOSUNNY   85  65  51 CALM      30.09F
6HR MIN TEMP:  62; 6HR MAX TEMP:  86;

ZIONSVILLE +   SUNNY     81  67  61 S7        30.10F
6HR MIN TEMP:  59; 6HR MAX TEMP:  82;


$$

INZ033-034-041-042-049-050-058-059-251900-
EAST CENTRAL INDIANA

CITY           SKY/WX    TMP DP  RH WIND       PRES   REMARKS
MUNCIE         SUNNY     83  63  50 MISG      30.10F
6HR MIN TEMP:  57; 6HR MAX TEMP:  83;


$$

INZ060-061-067>069-081>083-085>088-251900-
SOUTHWEST INDIANA

CITY           SKY/WX    TMP DP  RH WIND       PRES   REMARKS
EVANSVILLE     SUNNY     90  65  43 SW5       30.08F
6HR MIN TEMP:  66; 6HR MAX TEMP:  90;

HUNTINGBURG *+   N/A     88  64  45 W3        30.07F
6HR MIN TEMP:  63; 6HR MAX TEMP:  90;

WASHINGTON +   SUNNY     87  68  53 MISG      30.07F

$$

INZ062-063-066-070>080-084-089>092-251900-
SOUTH CENTRAL AND SOUTHEAST INDIANA

CITY           SKY/WX    TMP DP  RH WIND       PRES   REMARKS
BEDFORD +      SUNNY    N/A N/A N/A CALM      30.08
BLOOMINGTON    SUNNY     85  67  54 SE6       30.09F
6HR MIN TEMP:  67; 6HR MAX TEMP:  85;

MADISON *+     SUNNY     86  63  45 CALM      30.12F
NORTH VERNON + SUNNY     84  73  70 CALM      30.11F
SEYMOUR +      PTSUNNY   86  64  48 CALM      30.08F

$$





USA.gov is the U.S. government's official web portal to all federal, state and local government web resources and services.